Hourly Weather Aathal

Today, 19 October, Monday

Time Temperature Precipitation Wind Pressure Humidity
00:00 +6°C° 0 mm 0 mps 718 mmHg 84%
01:00 +5°C° 0 mm 0 mps 718 mmHg 87%
02:00 +5°C° 0 mm 0 mps 718 mmHg 87%
03:00 +4°C° 0 mm 0 mps 718 mmHg 88%
04:00 +4°C° 0 mm 0 mps 718 mmHg 89%
05:00 +3°C° 0 mm 0 mps 718 mmHg 89%
06:00 +3°C° 0 mm 0 mps 717 mmHg 90%
07:00 +4°C° 0 mm 1 mps 717 mmHg 92%
08:00 +6°C° 0 mm 1 mps 718 mmHg 85%
09:00 +7°C° 0 mm 0 mps 718 mmHg 78%
10:00 +9°C° 0 mm 0 mps 718 mmHg 71%
11:00 +10°C° 0 mm 0 mps 718 mmHg 67%
12:00 +12°C° 0 mm 0 mps 717 mmHg 62%
13:00 +14°C° 0 mm 1 mps 717 mmHg 59%
14:00 +14°C° 0 mm 1 mps 717 mmHg 61%
15:00 +12°C° 0 mm 0 mps 717 mmHg 64%
16:00 +12°C° 0 mm 0 mps 716 mmHg 66%
17:00 +11°C° 0 mm 1 mps 716 mmHg 72%
18:00 +9°C° 0 mm 1 mps 716 mmHg 79%
19:00 +7°C° 0 mm 1 mps 716 mmHg 85%
20:00 +7°C° 0 mm 1 mps 716 mmHg 84%
21:00 +7°C° 0 mm 1 mps 716 mmHg 82%
22:00 +7°C° 0 mm 1 mps 716 mmHg 81%
23:00 +6°C° 0 mm 1 mps 716 mmHg 79%

Tomorrow, 20 October, Tuesday

Time Temperature Precipitation Wind Pressure Humidity
00:00 +6°C° 0 mm 1 mps 716 mmHg 77%
01:00 +6°C° 0 mm 1 mps 716 mmHg 75%
02:00 +6°C° 0 mm 1 mps 716 mmHg 75%
03:00 +5°C° 0 mm 1 mps 715 mmHg 75%
04:00 +5°C° 0 mm 1 mps 715 mmHg 75%
05:00 +5°C° 0 mm 1 mps 715 mmHg 72%
06:00 +5°C° 0 mm 1 mps 715 mmHg 69%
07:00 +5°C° 0 mm 1 mps 715 mmHg 66%
08:00 +8°C° 0 mm 1 mps 715 mmHg 62%
09:00 +10°C° 0 mm 1 mps 715 mmHg 58%
10:00 +12°C° 0 mm 1 mps 715 mmHg 54%
11:00 +14°C° 0 mm 1 mps 715 mmHg 52%
12:00 +15°C° 0 mm 1 mps 715 mmHg 49%
13:00 +18°C° 0 mm 1 mps 715 mmHg 46%
14:00 +16°C° 0 mm 1 mps 715 mmHg 52%
15:00 +15°C° 0 mm 1 mps 715 mmHg 58%
16:00 +14°C° 0 mm 1 mps 714 mmHg 64%
17:00 +13°C° 0 mm 1 mps 714 mmHg 66%
18:00 +11°C° 0 mm 1 mps 714 mmHg 68%
19:00 +8°C° 0 mm 2 mps 714 mmHg 70%
20:00 +8°C° 0 mm 2 mps 714 mmHg 70%
21:00 +8°C° 0 mm 2 mps 714 mmHg 70%
22:00 +8°C° 0 mm 2 mps 715 mmHg 70%
23:00 +7°C° 0 mm 2 mps 714 mmHg 70%

Day after tomorrow, 21 October, Wednesday

Time Temperature Precipitation Wind Pressure Humidity
00:00 +7°C° 0 mm 2 mps 714 mmHg 70%
01:00 +7°C° 0 mm 2 mps 714 mmHg 70%
02:00 +7°C° 0 mm 2 mps 713 mmHg 71%
03:00 +7°C° 0 mm 2 mps 713 mmHg 72%
04:00 +7°C° 0 mm 2 mps 713 mmHg 73%
05:00 +7°C° 0 mm 2 mps 713 mmHg 74%
06:00 +7°C° 0 mm 1 mps 712 mmHg 75%
07:00 +7°C° 0 mm 1 mps 712 mmHg 76%
08:00 +10°C° 0 mm 1 mps 713 mmHg 71%
09:00 +12°C° 0 mm 1 mps 713 mmHg 65%
10:00 +15°C° 0 mm 1 mps 713 mmHg 60%
11:00 +16°C° 0 mm 1 mps 713 mmHg 57%
12:00 +19°C° 0 mm 1 mps 714 mmHg 54%
13:00 +20°C° 0 mm 1 mps 714 mmHg 52%
14:00 +20°C° 0 mm 1 mps 714 mmHg 56%
15:00 +19°C° 0 mm 1 mps 714 mmHg 59%
16:00 +19°C° 0 mm 1 mps 714 mmHg 63%
17:00 +15°C° 0 mm 1 mps 715 mmHg 66%
18:00 +13°C° 0 mm 2 mps 715 mmHg 70%
19:00 +10°C° 0 mm 2 mps 715 mmHg 73%
20:00 +10°C° 0 mm 2 mps 715 mmHg 71%
21:00 +10°C° 0 mm 2 mps 715 mmHg 69%
22:00 +9°C° 0 mm 2 mps 716 mmHg 67%
23:00 +9°C° 0 mm 2 mps 716 mmHg 69%

22 October, Thursday

Time Temperature Precipitation Wind Pressure Humidity
00:00 +9°C° 0 mm 2 mps 716 mmHg 70%
01:00 +9°C° 0 mm 1 mps 716 mmHg 71%
02:00 +9°C° 0 mm 1 mps 716 mmHg 71%
03:00 +9°C° 0 mm 1 mps 715 mmHg 72%
04:00 +9°C° 0 mm 1 mps 715 mmHg 72%
05:00 +9°C° 0 mm 1 mps 715 mmHg 72%
06:00 +9°C° 0 mm 1 mps 715 mmHg 73%
07:00 +9°C° 0 mm 1 mps 715 mmHg 73%
08:00 +11°C° 0 mm 1 mps 715 mmHg 69%
09:00 +13°C° 0 mm 1 mps 716 mmHg 65%
10:00 +15°C° 0 mm 1 mps 716 mmHg 61%
11:00 +16°C° 0 mm 1 mps 716 mmHg 60%
12:00 +18°C° 0 mm 1 mps 716 mmHg 59%
13:00 +19°C° 0 mm 1 mps 715 mmHg 58%
14:00 +18°C° 0 mm 1 mps 715 mmHg 62%
15:00 +18°C° 0 mm 1 mps 715 mmHg 66%
16:00 +16°C° 0 mm 1 mps 715 mmHg 71%
17:00 +15°C° 0 mm 1 mps 715 mmHg 72%
18:00 +14°C° 0 mm 1 mps 715 mmHg 74%
19:00 +13°C° 0 mm 2 mps 715 mmHg 75%
20:00 +13°C° 0 mm 2 mps 715 mmHg 75%
21:00 +13°C° 0 mm 1 mps 715 mmHg 74%
22:00 +13°C° 0 mm 1 mps 715 mmHg 73%
23:00 +13°C° 0 mm 1 mps 715 mmHg 75%

23 October, Friday

Time Temperature Precipitation Wind Pressure Humidity
00:00 +13°C° 0 mm 1 mps 714 mmHg 76%
01:00 +13°C° 0 mm 1 mps 714 mmHg 78%
02:00 +12°C° 0.1 mm 1 mps 714 mmHg 80%
03:00 +12°C° 0.1 mm 1 mps 714 mmHg 81%
04:00 +12°C° 0.1 mm 1 mps 713 mmHg 83%
05:00 +12°C° 0.2 mm 1 mps 713 mmHg 84%
06:00 +12°C° 0.2 mm 1 mps 713 mmHg 85%
07:00 +12°C° 0.2 mm 1 mps 713 mmHg 87%
08:00 +13°C° 0.2 mm 1 mps 713 mmHg 84%
09:00 +13°C° 0.2 mm 1 mps 713 mmHg 81%
10:00 +13°C° 0.2 mm 0 mps 713 mmHg 78%
11:00 +15°C° 0.1 mm 1 mps 712 mmHg 76%
12:00 +16°C° 0.1 mm 1 mps 712 mmHg 73%
13:00 +18°C° 0.1 mm 1 mps 712 mmHg 70%
14:00 +16°C° 0.2 mm 2 mps 712 mmHg 76%
15:00 +15°C° 0.2 mm 2 mps 712 mmHg 83%
16:00 +13°C° 0.2 mm 3 mps 711 mmHg 89%
17:00 +13°C° 3.1 mm 3 mps 712 mmHg 91%
18:00 +12°C° 3.1 mm 3 mps 712 mmHg 93%
19:00 +12°C° 3.1 mm 2 mps 713 mmHg 95%
20:00 +12°C° 0.5 mm 2 mps 713 mmHg 95%
21:00 +12°C° 0.5 mm 2 mps 714 mmHg 94%
22:00 +12°C° 0.5 mm 2 mps 714 mmHg 93%
23:00 +12°C° 0.4 mm 2 mps 714 mmHg 94%

24 October, Saturday

Time Temperature Precipitation Wind Pressure Humidity
00:00 +10°C° 0.4 mm 2 mps 714 mmHg 94%
01:00 +10°C° 0.4 mm 2 mps 715 mmHg 95%
02:00 +10°C° 0.1 mm 2 mps 715 mmHg 94%
03:00 +9°C° 0.1 mm 2 mps 715 mmHg 94%
04:00 +10°C° 0.1 mm 1 mps 715 mmHg 93%
05:00 +10°C° 0.1 mm 1 mps 716 mmHg 94%
06:00 +9°C° 0.1 mm 1 mps 716 mmHg 95%
07:00 +9°C° 0.1 mm 1 mps 716 mmHg 95%
08:00 +10°C° 0 mm 1 mps 717 mmHg 92%
09:00 +11°C° 0 mm 1 mps 717 mmHg 89%
10:00 +12°C° 0 mm 1 mps 717 mmHg 85%
11:00 +13°C° 0 mm 2 mps 717 mmHg 79%
12:00 +14°C° 0 mm 2 mps 717 mmHg 73%
13:00 +15°C° 0 mm 2 mps 717 mmHg 67%
14:00 +14°C° 0 mm 2 mps 717 mmHg 69%
15:00 +14°C° 0 mm 1 mps 716 mmHg 71%
16:00 +14°C° 0 mm 1 mps 716 mmHg 72%
17:00 +12°C° 0 mm 1 mps 716 mmHg 77%
18:00 +11°C° 0 mm 1 mps 716 mmHg 83%
19:00 +9°C° 0 mm 1 mps 716 mmHg 88%
20:00 +9°C° 0 mm 1 mps 716 mmHg 89%
21:00 +9°C° 0 mm 1 mps 716 mmHg 89%
22:00 +8°C° 0 mm 1 mps 717 mmHg 90%
23:00 +8°C° 0 mm 1 mps 716 mmHg 89%

25 October, Sunday

Time Temperature Precipitation Wind Pressure Humidity
00:00 +8°C° 0 mm 1 mps 716 mmHg 89%
01:00 +8°C° 0 mm 1 mps 716 mmHg 89%
02:00 +6°C° 0 mm 0 mps 715 mmHg 88%
03:00 +6°C° 0 mm 0 mps 715 mmHg 88%
04:00 +6°C° 0 mm 0 mps 715 mmHg 87%
05:00 +6°C° 0 mm 0 mps 715 mmHg 87%
06:00 +7°C° 0 mm 1 mps 714 mmHg 86%
07:00 +7°C° 0 mm 1 mps 714 mmHg 85%
08:00 +9°C° 0 mm 1 mps 714 mmHg 79%
09:00 +11°C° 0 mm 1 mps 714 mmHg 73%
10:00 +12°C° 0 mm 0 mps 714 mmHg 67%
11:00 +13°C° 0 mm 0 mps 713 mmHg 64%
12:00 +16°C° 0 mm 1 mps 713 mmHg 61%
13:00 +18°C° 0 mm 1 mps 713 mmHg 57%
14:00 +18°C° 0 mm 1 mps 712 mmHg 62%
15:00 +15°C° 0 mm 0 mps 712 mmHg 66%
16:00 +14°C° 0 mm 0 mps 712 mmHg 71%
17:00 +14°C° 0 mm 1 mps 712 mmHg 75%
18:00 +12°C° 0 mm 1 mps 712 mmHg 79%
19:00 +10°C° 0 mm 1 mps 712 mmHg 84%
20:00 +10°C° 0 mm 1 mps 712 mmHg 82%
21:00 +9°C° 0 mm 1 mps 712 mmHg 81%
22:00 +9°C° 0 mm 1 mps 712 mmHg 80%
23:00 +9°C° 0 mm 1 mps 712 mmHg 79%
Show more